Weather in Kabul

Afghanistan     34°30′55″N   69°10′34″E
В апреле 2022 года жителям России запретили посещать сайт meteo.paraplan.net по решению Генеральной прокуратуры. Аудитория сайта уменьшилась в 10 раз. Владельцы сайта не видят смысла в поддержке погодного сервера в таких условиях. Сайт будет закрыт в октябре.
temp.,
°C
wind,
m/s
gust,
m/s
humid.,
%
clouds,
%
prec.,
mm/h
press.,
hPa
HPBL,
m
25 september, sun
sun2501:30+16nnw11230 0.0 100811
04:30+14n11250 0.0 100810
07:30+16nnw11200 0.0 1010132
10:30+21n11150 0.0 1009819
13:30+24s02100 0.0 10051626
16:30+25n3390 0.0 10052061
19:30+20nnw22140 0.0 100911
22:30+17n22170 0.0 101215
26 september, mon
mon2601:30+14nnw11200 0.0 101311
04:30+12nw11220 0.0 101510
07:30+15nnw11150 0.0 1016108
10:30+20nnw11100 0.0 1015720
13:30+24e0160 0.0 10111261
16:30+25nne1170 0.0 10101165
19:30+20n22160 0.0 101233
22:30+17n22200 0.0 101411
27 september, tue
tue2701:30+14n11240 0.0 101311
04:30+13nnw11270 0.0 101310
07:30+16w11210 0.0 1014131
10:30+21w01140 0.0 1012810
13:30+24sse01100 0.0 10081229
16:30+25se1080 0.0 10071252
19:30+21n34140 0.0 100945
22:30+17nw11200 0.0 101111
28 september, wed
wed2801:30+15nw11230 0.0 101110
04:30+13nw11240 0.0 101110
07:30+16nw11190 0.0 1012105
10:30+21n11130 0.0 1010704
13:30+24e01100 0.0 10071531
16:30+25nne1180 0.0 10051608
19:30+21nne33110 0.0 100825
22:30+17nnw22160 0.0 101011
29 september, thu
thu2901:30+15nw11200 0.0 101011
04:30+13wnw11220 0.0 101011
07:30+16wsw00170 0.0 101287
10:30+21n11100 0.0 1010811
13:30+25wsw0280 0.0 10071726
16:30+26ne1270 0.0 10061843
19:30+20ene22260 0.0 100816
22:30+18ene11480 0.0 100911